�������l�o���
Date,Time,MP-1(��Sv/h),MP-2(��Sv/h),MP-3(��Sv/h),MP-4(��Sv/h),MP-5(��Sv/h),MP-6(��Sv/h),MP-7(��Sv/h),MP-8(��Sv/h),����,����(m/s),���J
2021/11/11,00:00,0.571,0.851,0.544,1.040,0.720,0.353,0.610,0.573,�쐼,1.2,��
2021/11/11,00:10,0.570,0.850,0.544,1.041,0.724,0.352,0.609,0.574,���쐼,3.3,��
2021/11/11,00:20,0.568,0.852,0.544,1.039,0.721,0.352,0.609,0.573,���쐼,4.4,��
2021/11/11,00:30,0.568,0.850,0.544,1.042,0.722,0.353,0.609,0.573,�쐼,4.7,��
2021/11/11,00:40,0.571,0.850,0.543,1.042,0.721,0.354,0.609,0.574,�쐼,3.7,��
2021/11/11,00:50,0.570,0.852,0.544,1.043,0.722,0.352,0.611,0.574,���쐼,3.7,��
2021/11/11,01:00,0.570,0.850,0.544,1.040,0.722,0.352,0.609,0.575,���쐼,2.8,��
2021/11/11,01:10,0.570,0.851,0.544,1.041,0.723,0.353,0.610,0.572,��,2.0,��
2021/11/11,01:20,0.571,0.850,0.543,1.041,0.720,0.353,0.609,0.573,���쐼,2.0,��
2021/11/11,01:30,0.569,0.851,0.545,1.040,0.721,0.353,0.610,0.574,���쐼,1.5,��
2021/11/11,01:40,0.570,0.851,0.543,1.040,0.721,0.353,0.609,0.574,���쐼,1.7,��
2021/11/11,01:50,0.570,0.852,0.544,1.041,0.722,0.354,0.610,0.573,���쐼,2.3,��
2021/11/11,02:00,0.571,0.852,0.544,1.042,0.722,0.353,0.609,0.574,�쐼,2.3,��
2021/11/11,02:10,0.569,0.852,0.542,1.041,0.721,0.353,0.609,0.574,�쐼,2.2,��
2021/11/11,02:20,0.571,0.851,0.543,1.041,0.722,0.352,0.610,0.573,��쐼,1.4,��
2021/11/11,02:30,0.570,0.850,0.543,1.041,0.723,0.353,0.609,0.574,��쐼,1.4,��
2021/11/11,02:40,0.570,0.850,0.544,1.042,0.722,0.354,0.609,0.573,��쐼,1.7,��
2021/11/11,02:50,0.570,0.851,0.543,1.041,0.723,0.352,0.607,0.573,��쐼,1.9,��
2021/11/11,03:00,0.569,0.851,0.544,1.041,0.723,0.352,0.609,0.573,��쐼,2.0,��
2021/11/11,03:10,0.570,0.850,0.543,1.042,0.724,0.352,0.609,0.574,��쐼,2.0,��
2021/11/11,03:20,0.571,0.850,0.546,1.040,0.724,0.352,0.609,0.573,��쐼,3.2,��
2021/11/11,03:30,0.569,0.850,0.544,1.044,0.721,0.353,0.609,0.574,��쐼,4.7,��
2021/11/11,03:40,0.571,0.850,0.543,1.040,0.720,0.351,0.608,0.574,�쐼,5.5,��
2021/11/11,03:50,0.571,0.851,0.544,1.044,0.724,0.353,0.608,0.572,�쐼,5.5,��
2021/11/11,04:00,0.571,0.850,0.542,1.042,0.723,0.354,0.608,0.574,�쐼,6.6,��
2021/11/11,04:10,0.569,0.850,0.545,1.041,0.722,0.355,0.609,0.573,�쐼,5.3,��
2021/11/11,04:20,0.570,0.851,0.544,1.040,0.723,0.352,0.609,0.574,��,3.5,��
2021/11/11,04:30,0.568,0.851,0.543,1.042,0.723,0.352,0.610,0.574,���쐼,2.6,��
2021/11/11,04:40,0.570,0.850,0.542,1.043,0.722,0.353,0.610,0.572,���쐼,3.0,��
2021/11/11,04:50,0.570,0.854,0.542,1.042,0.722,0.351,0.610,0.574,���쐼,2.6,��
2021/11/11,05:00,0.567,0.852,0.543,1.042,0.721,0.353,0.607,0.573,���쐼,1.9,��
2021/11/11,05:10,0.571,0.850,0.543,1.040,0.723,0.352,0.608,0.573,��,2.3,��
2021/11/11,05:20,0.571,0.852,0.543,1.042,0.722,0.353,0.609,0.573,��,3.0,��
2021/11/11,05:30,0.569,0.852,0.544,1.041,0.723,0.353,0.608,0.574,���k��,3.8,��
2021/11/11,05:40,0.568,0.851,0.544,1.042,0.723,0.354,0.608,0.574,���k��,3.3,��
2021/11/11,05:50,0.569,0.848,0.543,1.042,0.724,0.353,0.609,0.572,���k��,3.4,��
2021/11/11,06:00,0.569,0.848,0.543,1.044,0.722,0.353,0.609,0.573,��,3.7,��
2021/11/11,06:10,0.571,0.851,0.543,1.045,0.723,0.353,0.609,0.574,���쐼,4.2,��
2021/11/11,06:20,0.571,0.850,0.543,1.043,0.723,0.352,0.608,0.573,��,5.3,��
2021/11/11,06:30,0.569,0.850,0.542,1.041,0.724,0.352,0.609,0.573,��,5.0,��
2021/11/11,06:40,0.569,0.851,0.544,1.044,0.723,0.353,0.609,0.572,��,4.9,��
2021/11/11,06:50,0.568,0.852,0.544,1.044,0.723,0.352,0.610,0.575,��,4.1,��
2021/11/11,07:00,0.570,0.852,0.544,1.045,0.723,0.353,0.611,0.574,���k��,4.3,��
2021/11/11,07:10,0.568,0.852,0.543,1.044,0.723,0.351,0.610,0.574,���k��,4.6,��
2021/11/11,07:20,0.570,0.853,0.543,1.043,0.723,0.353,0.609,0.574,���k��,5.7,��
2021/11/11,07:30,0.570,0.853,0.545,1.045,0.724,0.353,0.610,0.574,���k��,5.0,��
2021/11/11,07:40,0.572,0.851,0.545,1.043,0.721,0.353,0.609,0.574,���쐼,3.5,��
2021/11/11,07:50,0.570,0.852,0.544,1.044,0.724,0.352,0.612,0.575,���쐼,3.1,��
2021/11/11,08:00,0.571,0.851,0.544,1.044,0.725,0.353,0.610,0.573,���쐼,4.0,��
2021/11/11,08:10,0.570,0.852,0.545,1.045,0.724,0.353,0.610,0.574,��,4.5,��
2021/11/11,08:20,0.574,0.852,0.546,1.045,0.725,0.353,0.610,0.574,��,5.3,��
2021/11/11,08:30,0.572,0.850,0.545,1.047,0.724,0.353,0.611,0.574,���쐼,4.1,��
2021/11/11,08:40,0.572,0.852,0.545,1.046,0.723,0.354,0.611,0.573,�쐼,3.2,��
2021/11/11,08:50,0.573,0.851,0.546,1.047,0.726,0.353,0.612,0.575,�쐼,3.0,��
2021/11/11,09:00,0.572,0.849,0.546,1.046,0.726,0.352,0.611,0.574,��,3.2,��
2021/11/11,09:10,0.572,0.853,0.545,1.046,0.725,0.354,0.608,0.572,���k��,3.5,��
2021/11/11,09:20,0.573,0.850,0.545,1.049,0.726,0.355,0.610,0.575,���k��,2.5,��
2021/11/11,09:30,0.572,0.850,0.547,1.048,0.728,0.355,0.608,0.574,��,2.6,��
2021/11/11,09:40,0.572,0.852,0.548,1.044,0.728,0.355,0.609,0.574,��,2.3,��
2021/11/11,09:50,0.574,0.854,0.548,1.048,0.728,0.354,0.611,0.575,��,2.2,��
2021/11/11,10:00,0.572,0.852,0.548,1.044,0.727,0.352,0.610,0.575,�쐼,2.0,��
2021/11/11,10:10,0.573,0.854,0.548,1.046,0.729,0.353,0.610,0.575,��,1.2,��
2021/11/11,10:20,0.573,0.850,0.547,1.047,0.728,0.353,0.610,0.576,�k�k��,2.3,��
2021/11/11,10:30,0.573,0.852,0.547,1.048,0.728,0.351,0.610,0.577,�k,1.7,��
2021/11/11,10:40,0.574,0.854,0.547,1.045,0.727,0.352,0.612,0.578,��쓌,1.5,��
2021/11/11,10:50,0.574,0.852,0.546,1.047,0.727,0.352,0.610,0.576,��,3.3,��
2021/11/11,11:00,0.576,0.853,0.546,1.045,0.726,0.353,0.609,0.575,���쐼,5.7,��
2021/11/11,11:10,0.575,0.853,0.547,1.044,0.727,0.353,0.610,0.577,��쐼,1.1,��
2021/11/11,11:20,0.574,0.852,0.546,1.046,0.728,0.354,0.609,0.576,�쓌,2.2,��
2021/11/11,11:30,0.575,0.856,0.547,1.047,0.727,0.353,0.610,0.576,�쓌,4.1,��
2021/11/11,11:40,0.576,0.854,0.548,1.048,0.728,0.352,0.611,0.576,�쓌,4.0,��
2021/11/11,11:50,0.575,0.857,0.547,1.050,0.729,0.353,0.612,0.577,��쓌,4.5,��
2021/11/11,12:00,0.576,0.858,0.547,1.047,0.730,0.354,0.609,0.576,��쓌,6.3,��
2021/11/11,12:10,0.576,0.857,0.548,1.048,0.728,0.353,0.611,0.577,��쓌,5.7,��
2021/11/11,12:20,0.576,0.858,0.547,1.048,0.728,0.354,0.611,0.576,��쓌,4.6,��
2021/11/11,12:30,0.577,0.857,0.548,1.047,0.730,0.354,0.610,0.574,��쓌,4.9,��
2021/11/11,12:40,0.574,0.857,0.547,1.047,0.730,0.354,0.610,0.574,��쓌,4.8,��
2021/11/11,12:50,0.576,0.858,0.548,1.049,0.730,0.354,0.611,0.575,��쓌,4.4,��
2021/11/11,13:00,0.577,0.857,0.551,1.047,0.731,0.354,0.611,0.574,��쓌,4.7,��
2021/11/11,13:10,0.576,0.859,0.549,1.048,0.731,0.354,0.610,0.574,��쓌,4.2,��
2021/11/11,13:20,0.576,0.854,0.549,1.049,0.731,0.353,0.611,0.575,��쓌,5.8,��
2021/11/11,13:30,0.576,0.857,0.548,1.049,0.732,0.354,0.612,0.576,��쓌,5.9,��
2021/11/11,13:40,0.577,0.857,0.549,1.050,0.731,0.354,0.611,0.575,��쓌,6.2,��
2021/11/11,13:50,0.577,0.857,0.549,1.050,0.731,0.353,0.611,0.574,��,6.1,��
2021/11/11,14:00,0.576,0.857,0.549,1.049,0.732,0.354,0.611,0.575,��쓌,6.9,��
2021/11/11,14:10,0.575,0.857,0.548,1.049,0.733,0.353,0.610,0.575,��쓌,7.7,��
2021/11/11,14:20,0.576,0.858,0.547,1.048,0.730,0.354,0.610,0.575,��쓌,6.3,��
2021/11/11,14:30,0.575,0.858,0.548,1.050,0.732,0.354,0.612,0.576,��쓌,4.9,��
2021/11/11,14:40,0.576,0.857,0.549,1.047,0.732,0.353,0.611,0.575,��쓌,5.3,��
2021/11/11,14:50,0.577,0.860,0.550,1.048,0.732,0.354,0.613,0.573,��,4.4,��
2021/11/11,15:00,0.577,0.858,0.548,1.049,0.731,0.354,0.613,0.574,��,3.6,��
2021/11/11,15:10,0.575,0.860,0.548,1.049,0.731,0.353,0.613,0.576,��,4.7,��
2021/11/11,15:20,0.577,0.858,0.551,1.050,0.732,0.354,0.613,0.575,��,4.3,��
2021/11/11,15:30,0.576,0.862,0.550,1.049,0.733,0.353,0.613,0.576,��,2.6,��
2021/11/11,15:40,0.578,0.860,0.548,1.048,0.733,0.354,0.613,0.575,��쐼,1.5,��
2021/11/11,15:50,0.575,0.862,0.550,1.050,0.732,0.355,0.612,0.577,��쐼,0.9,��
2021/11/11,16:00,0.574,0.862,0.549,1.048,0.731,0.355,0.615,0.576,��,1.7,��
2021/11/11,16:10,0.575,0.860,0.550,1.050,0.732,0.356,0.613,0.578,��,1.5,��
2021/11/11,16:20,0.575,0.862,0.547,1.050,0.730,0.356,0.613,0.578,��,0.9,��
2021/11/11,16:30,0.576,0.863,0.551,1.049,0.730,0.354,0.613,0.577,���쐼,1.2,��
2021/11/11,16:40,0.575,0.863,0.551,1.049,0.731,0.355,0.612,0.578,�k��,2.3,��
2021/11/11,16:50,0.577,0.863,0.551,1.049,0.733,0.355,0.616,0.575,�k��,3.8,��
2021/11/11,17:00,0.577,0.863,0.550,1.049,0.733,0.354,0.612,0.576,�k��,3.7,��
2021/11/11,17:10,0.577,0.864,0.549,1.049,0.735,0.355,0.613,0.577,���k��,3.5,��
2021/11/11,17:20,0.579,0.863,0.551,1.050,0.736,0.355,0.612,0.577,��,4.8,��
2021/11/11,17:30,0.577,0.865,0.551,1.048,0.735,0.355,0.614,0.577,��,6.1,��
2021/11/11,17:40,0.579,0.862,0.551,1.052,0.734,0.355,0.614,0.576,���k��,7.7,��
2021/11/11,17:50,0.576,0.864,0.549,1.052,0.734,0.356,0.613,0.578,��,6.9,��
2021/11/11,18:00,0.578,0.864,0.551,1.051,0.735,0.356,0.613,0.576,���k��,5.5,��
2021/11/11,18:10,0.577,0.863,0.550,1.050,0.734,0.355,0.613,0.577,���k��,5.6,��
2021/11/11,18:20,0.577,0.864,0.550,1.051,0.734,0.354,0.612,0.576,�k��,4.9,��
2021/11/11,18:30,0.578,0.862,0.552,1.051,0.734,0.355,0.613,0.578,�k��,6.0,��
2021/11/11,18:40,0.576,0.864,0.550,1.050,0.735,0.355,0.615,0.576,�k��,6.9,��
2021/11/11,18:50,0.579,0.863,0.551,1.050,0.736,0.356,0.612,0.576,�k��,6.9,��
2021/11/11,19:00,0.578,0.862,0.552,1.049,0.736,0.355,0.614,0.578,���k��,7.7,��
2021/11/11,19:10,0.578,0.861,0.550,1.049,0.734,0.354,0.611,0.578,���k��,5.0,��
2021/11/11,19:20,0.578,0.862,0.552,1.049,0.735,0.356,0.612,0.579,�k��,4.7,��
2021/11/11,19:30,0.577,0.865,0.551,1.051,0.735,0.355,0.612,0.577,�k��,6.3,��
2021/11/11,19:40,0.577,0.862,0.551,1.050,0.734,0.355,0.613,0.577,�k��,6.4,��
2021/11/11,19:50,0.578,0.864,0.550,1.051,0.736,0.355,0.612,0.578,�k��,6.0,��
2021/11/11,20:00,0.578,0.864,0.551,1.050,0.735,0.355,0.612,0.576,�k��,5.8,��
2021/11/11,20:10,0.578,0.865,0.551,1.049,0.736,0.354,0.612,0.577,�k��,5.0,��
2021/11/11,20:20,0.578,0.863,0.549,1.052,0.739,0.355,0.611,0.578,�k��,5.1,��
2021/11/11,20:30,0.575,0.863,0.550,1.049,0.736,0.355,0.612,0.578,���k��,5.5,��
2021/11/11,20:40,0.578,0.863,0.550,1.051,0.735,0.354,0.612,0.576,���k��,4.3,��
2021/11/11,20:50,0.576,0.863,0.551,1.053,0.735,0.354,0.613,0.577,���k��,3.0,��
2021/11/11,21:00,0.578,0.862,0.552,1.051,0.737,0.355,0.614,0.575,���k��,2.9,��
2021/11/11,21:10,0.577,0.862,0.551,1.051,0.735,0.354,0.613,0.576,���k��,4.7,��
2021/11/11,21:20,0.577,0.863,0.551,1.051,0.736,0.355,0.613,0.577,���k��,5.8,��
2021/11/11,21:30,0.578,0.863,0.550,1.052,0.736,0.354,0.613,0.576,���k��,5.0,��
2021/11/11,21:40,0.577,0.862,0.550,1.049,0.736,0.353,0.613,0.576,���k��,4.9,��
2021/11/11,21:50,0.577,0.863,0.550,1.050,0.736,0.354,0.612,0.577,�k��,3.6,��
2021/11/11,22:00,0.578,0.864,0.551,1.052,0.738,0.353,0.614,0.576,�k��,4.0,��
2021/11/11,22:10,0.577,0.863,0.550,1.051,0.737,0.352,0.613,0.576,�k��,5.1,��
2021/11/11,22:20,0.578,0.864,0.552,1.051,0.735,0.355,0.614,0.578,�k��,6.1,��
2021/11/11,22:30,0.578,0.862,0.550,1.052,0.736,0.353,0.612,0.576,�k��,6.9,��
2021/11/11,22:40,0.577,0.864,0.548,1.051,0.735,0.355,0.613,0.577,�k��,5.8,��
2021/11/11,22:50,0.576,0.863,0.550,1.050,0.735,0.354,0.614,0.576,���k��,5.6,��
2021/11/11,23:00,0.576,0.862,0.549,1.050,0.736,0.354,0.614,0.577,���k��,6.4,��
2021/11/11,23:10,0.576,0.862,0.551,1.050,0.736,0.353,0.612,0.576,���k��,6.3,��
2021/11/11,23:20,0.576,0.863,0.551,1.051,0.736,0.353,0.614,0.576,���k��,5.3,��
2021/11/11,23:30,0.578,0.863,0.550,1.052,0.735,0.354,0.612,0.577,���k��,5.6,��
2021/11/11,23:40,0.577,0.863,0.550,1.050,0.735,0.354,0.611,0.577,���k��,5.0,��
2021/11/11,23:50,0.578,0.863,0.549,1.050,0.736,0.355,0.612,0.576,��,3.4,��
